LiveATC.Net - Listen to live air traffic control over the Internet!


ICAO: LBPD  IATA: PDV   Airport: Plovdiv International Airport
City: Plovdiv
Country: Bulgaria   Continent: Europe
LBPD METAR Weather: LBPD 010830Z AUTO 31005KT 270V360 9999 NCD 30/16 Q1015 NOSIG
LBPD Flight Activity (FlightAware)

LBPD Tower
Feed Status: UP   Listeners: 0
Listen in your browser - HTML5 player (in browser, HTML5)
Click here to listen with your own player (launches your MP3 player)
Archive Access: LBPD Tower
FacilityFrequency
Plovdiv Tower125.500
Plovdiv Tower133.600

NOTICE

Unauthorized use prohibited. See LiveATC.net Terms of Service


Airport/ARTCC Code
Frequency Search
(e.g., 124.400, 128.75)
Site-wide search
 


Browse Feeds
Top 50 Feeds
HF Oceanic Feeds
Coverage Map
Bad Weather Areas

LiveATC FAQ
Offer LiveATC feed
Contact LiveATC.net
Press Inquiries

LiveATC on iPhone
LiveATC on Android

LiveATC Mobile
(Mobile browser)

ATC Audio Archives
Interesting Recordings

LiveATC Forums


Home Page
About LiveATC.net


Terms of Use
Privacy Policy

AIRMETs/SIGMETs

FAA Airport Status
NAS Status
Arrival Demand


Server Software By:
Icecast.org
Liquidsoap